Grand Junction, CO

5:25 PM MST on November 18, 2019 (GMT -0700)
Walker

Weather History for KGJT - August, 2019

Change the Weather History Date:

Thursday, August 22, 2019

  Actual Average Record
Temperature  
Mean Temperature 82 °F 74 °F  
Max Temperature 93 °F 89 °F 98 °F (1905)
Min Temperature 71 °F 60 °F 50 °F (1964)
Degree Days  
Heating Degree Days 0 0  
Month to date heating degree days 0 0  
Since 1 June heating degree days 25 23  
Since 1 July heating degree days 0 1  
Cooling Degree Days 17 10  
Month to date cooling degree days 319 252  
Year to date cooling degree days 1004 944  
Since 1 June cooling degree days 992 893  
Growing Degree Days 31 (Base 50)    
Moisture  
Dew Point 36 °F    
Average Humidity 19    
Maximum Humidity 27    
Minimum Humidity 11    
Precipitation  
Precipitation 0.00 in 0.03 in 0.70 in (1922)
Month to date precipitation 0.14 0.65  
Year to date precipitation 6.86 5.55  
Snow  
Snow 0.00 in 0.00 in 0.00 in (2018)
Month to date snowfall 0.0 0.0  
Since 1 June snowfall 0.0 0.0  
Since 1 July snowfall 0.0 0.0  
Snow Depth 0.00 in    
Sea Level Pressure  
Sea Level Pressure 29.69 in    
Wind  
Wind Speed 11 mph (SE)    
Max Wind Speed 23 mph    
Max Gust Speed 33 mph    
Visibility 10 miles    
Events      
T = Trace of Precipitation, MM = Missing Value Source: NWS Daily Summary

Daily Weather History Graph

Daily Weather History Graph

Search for Another Location

Airport or City:

Astronomy

Aug. 22, 2019 Rise Set
Actual Time 6:33 AM MDT 7:59 PM MDT
Civil Twilight 6:05 AM MDT 8:27 PM MDT
Nautical Twilight 5:31 AM MDT 9:01 PM MDT
Astronomical Twilight 4:56 AM MDT 9:36 PM MDT
Moon 11:54 PM MDT (8/22) 1:09 PM MDT (8/22)
Length of Visible Light 14h 22m
Length of Day
13h 26m
Waning Gibbous, 59% of the Moon is Illuminated
Aug 22
Waning Gibbous
Aug 23
Last Quarter
Aug 30
New
Sep 5
First Quarter
Sep 13
Full

Hourly Weather History & Observations

Time (MDT) Temp. Dew Point Humidity Pressure Visibility Wind Dir Wind Speed Gust Speed Precip Events Conditions
12:53 AM 79.0 °F 37.9 °F 23% 29.70 in 10.0 mi ESE 17.3 mph - N/A   Clear
1:53 AM 79.0 °F 37.0 °F 22% 29.68 in 10.0 mi SE 19.6 mph - N/A   Clear
2:53 AM 73.9 °F 35.1 °F 24% 29.68 in 10.0 mi East 10.4 mph - N/A   Clear
3:53 AM 73.0 °F 35.1 °F 25% 29.69 in 10.0 mi ESE 9.2 mph - N/A   Clear
4:53 AM 72.0 °F 33.1 °F 24% 29.71 in 10.0 mi East 12.7 mph - N/A   Clear
5:53 AM 71.1 °F 32.0 °F 24% 29.71 in 10.0 mi East 12.7 mph - N/A   Clear
6:53 AM 72.0 °F 35.1 °F 26% 29.72 in 10.0 mi East 13.8 mph - N/A   Clear
7:53 AM 75.0 °F 35.1 °F 23% 29.73 in 10.0 mi East 15.0 mph - N/A   Clear
8:53 AM 77.0 °F 37.0 °F 24% 29.75 in 10.0 mi SE 15.0 mph 27.6 mph N/A   Clear
9:53 AM 81.0 °F 37.9 °F 21% 29.75 in 10.0 mi ESE 12.7 mph - N/A   Clear
10:53 AM 86.0 °F 39.9 °F 20% 29.72 in 10.0 mi SE 11.5 mph - N/A   Clear
11:53 AM 91.0 °F 39.9 °F 17% 29.70 in 10.0 mi SE 6.9 mph - N/A   Clear
12:53 PM 91.0 °F 41.0 °F 17% 29.69 in 10.0 mi West 9.2 mph - N/A   Clear
1:53 PM 91.9 °F 39.0 °F 16% 29.67 in 10.0 mi WNW 11.5 mph 20.7 mph N/A   Clear
2:53 PM 91.9 °F 39.9 °F 16% 29.68 in 10.0 mi WNW 15.0 mph - N/A   Clear
3:53 PM 93.0 °F 34.0 °F 12% 29.65 in 10.0 mi West 11.5 mph - N/A   Clear
4:53 PM 91.0 °F 30.0 °F 11% 29.64 in 10.0 mi Calm Calm - N/A   Clear
5:53 PM 91.0 °F 32.0 °F 12% 29.64 in 10.0 mi West 5.8 mph - N/A   Clear
6:53 PM 90.0 °F 30.0 °F 12% 29.63 in 10.0 mi Calm Calm - N/A   Clear
7:53 PM 84.0 °F 39.0 °F 20% 29.65 in 10.0 mi South 15.0 mph 21.9 mph N/A   Clear
8:53 PM 82.0 °F 39.9 °F 22% 29.67 in 10.0 mi SSE 10.4 mph - N/A   Clear
9:53 PM 78.1 °F 39.0 °F 25% 29.68 in 10.0 mi ESE 11.5 mph - N/A   Clear
10:53 PM 77.0 °F 37.9 °F 24% 29.68 in 10.0 mi ESE 12.7 mph - N/A   Clear
11:53 PM 77.0 °F 37.9 °F 24% 29.67 in 10.0 mi ESE 17.3 mph - N/A   Clear